Location: Mittersill
(44.1801°N, 71.7142°W)
Time: 02:20:01
(UTC+00:00)

NOSS 2-1 (C) - Pass Details

Date: 10 September 2024
Orbit: 384 x 1729 km, 63.3° (Epoch: 04 October)

Event Time Altitude Azimuth Distance (km) Brightness Sun altitude
Rises 23:43:02 0° 331° (NNW) 2,472 7.3 -7.4°
Reaches altitude 10° 23:45:06 10° 344° (NNW) 1,705 6.3 -7.8°
Maximum altitude 23:48:27 30° 47° (NE) 1,062 4.5 -8.4°
Enters shadow 23:52:27 12° 107° (ESE) 2,107 5.6 -9.1°
